This demonstration page uses our WeatherBlox Daily Observations layout. Learn more.

Left ArrowRight Arrow

41.86663, -103.66717

Hourly Observations for June 30, 2018

Temp ( °F °C ) Dew Point ( °F °C ) Humidity (%) Winds ( mph kmh ) Pressure ( in mb ) Visibility ( mi km ) Precip ( " mm )
12:18 am 00:18 Mostly Clear with Light Thunderstorms 62 16.7 62 16.7 100 100 E 7 11 29.80 1009 2 3 0.07 1.78
12:25 am 00:25 Cloudy with Light Thunderstorms 62 16.7 62 16.7 100 100 N N/A 29.80 1009 10 16 0.08 2.03
12:36 am 00:36 Cloudy with Thunderstorms 63 17 63 17 100 100 SSW 9 15 29.83 1010 10 16 N/A
12:44 am 00:44 Cloudy with Thunderstorms 61 16 N/A N/A VRB 6 9 29.80 1009 5 8 N/A
12:53 am 00:53 Cloudy with Light Thunderstorms 61 16.1 61 16.1 100 100 ENE 6 9 29.85 1011 5 8 0.19 4.83
1:06 am 01:06 Cloudy with Light Thunderstorms 63 17 63 17 100 100 NNE 10 17 29.85 1011 10 16 N/A
1:53 am 01:53 Cloudy with Thunderstorms 61 16.1 61 16.1 100 100 VRB 3 6 29.88 1012 7 11 0.09 2.29
2:28 am 02:28 Cloudy with Light Thunderstorms 61 16 61 16 100 100 E 3 6 29.91 1013 9 14 N/A
2:46 am 02:46 Cloudy with Nearby Thunderstorms 61 16 61 16 100 100 NNE 8 13 29.85 1011 10 16 N/A
2:53 am 02:53 Cloudy with Nearby Thunderstorms 61 16.1 60 15.6 97 97 NNE 8 13 29.87 1011 10 16 0.06 1.52
3:09 am 03:09 Cloudy 61 16.1 61 16.1 100 100 NNE 6 9 29.85 1011 10 16 N/A
3:53 am 03:53 Cloudy 61 16.1 60 15.6 97 97 N 7 11 29.85 1011 10 16 N/A
4:53 am 04:53 Mostly Cloudy 61 16.1 61 16.1 100 100 N N/A 29.85 1011 10 16 N/A
5:13 am 05:13 Cloudy 61 16.1 60 15.6 97 97 N N/A 29.85 1011 10 16 N/A
5:53 am 05:53 Cloudy 61 16.1 60 15.6 97 97 N 3 6 29.89 1012 10 16 N/A
6:53 am 06:53 Cloudy 61 16.1 59 15 93 93 NW 5 7 29.92 1013 10 16 N/A
7:53 am 07:53 Mostly Cloudy 63 17.2 61 16.1 93 93 NNW 6 9 29.93 1014 10 16 N/A
8:06 am 08:06 Mostly Cloudy 63 17 61 16 94 94 NNW 5 7 29.88 1012 10 16 N/A
8:20 am 08:20 Cloudy 64 18 61 16 88 88 N 7 11 29.88 1012 10 16 N/A
8:53 am 08:53 Cloudy 64 17.8 59 15 84 84 N 6 9 29.93 1014 10 16 N/A
9:35 am 09:35 Cloudy 66 18.9 59 15 78 78 N 5 7 29.85 1011 10 16 N/A
9:43 am 09:43 Cloudy 66 18.9 59 15 78 78 NW 6 9 29.85 1011 10 16 N/A
9:53 am 09:53 Cloudy 65 18.3 60 15.6 84 84 WNW 7 11 29.93 1014 10 16 N/A
10:53 am 10:53 Cloudy 65 18.3 59 15 81 81 N 8 13 29.94 1014 10 16 N/A
11:44 am 11:44 Cloudy 66 19 59 15 78 78 N N/A 29.88 1012 10 16 N/A
11:53 am 11:53 Cloudy 67 19.4 59 15 76 76 NNW 3 6 29.95 1014 10 16 N/A
12:00 pm 12:00 Cloudy 68 20 59 15 73 73 WNW 6 9 29.88 1012 10 16 N/A
12:53 pm 12:53 Cloudy 69 20.6 59 15 70 70 WSW 3 6 29.95 1014 10 16 N/A
1:53 pm 13:53 Cloudy 69 20.6 58 14.4 68 68 N N/A 29.93 1014 10 16 N/A
2:53 pm 14:53 Cloudy with Nearby Thunderstorms 68 20 60 15.6 76 76 WNW 8 13 29.94 1014 10 16 N/A
3:06 pm 15:06 Cloudy with Nearby Thunderstorms 57 14 55 13 94 94 WNW 15 24 30.03 1017 1 2 N/A
3:14 pm 15:14 Cloudy with Heavy Thunderstorms 55 13 55 13 100 100 NW 14 22 30.00 1016 1 1 N/A
3:24 pm 15:24 Cloudy with Heavy Thunderstorms 55 13 55 13 100 100 NW 15 24 29.97 1015 2 3 N/A
3:31 pm 15:31 Cloudy with Thunderstorms 56 13.3 56 13.3 100 100 WNW 16 26 29.97 1015 3 5 0.48 12.19
3:53 pm 15:53 Cloudy with Nearby Thunderstorms 57 13.9 57 13.9 100 100 WNW 15 24 30.01 1016 6 10 0.51 12.95
4:06 pm 16:06 Cloudy with Rain 57 14 57 14 100 100 WSW 16 26 30.03 1017 5 8 N/A
4:53 pm 16:53 Cloudy with Light Rain 58 14.4 58 14.4 100 100 NNW 12 19 29.98 1015 10 16 0.08 2.03
5:53 pm 17:53 Cloudy 60 15.6 60 15.6 100 100 ENE 5 7 29.92 1013 10 16 N/A
6:53 pm 18:53 Partly Cloudy 58 14.4 57 13.9 97 97 N N/A 29.94 1014 10 16 N/A
7:53 pm 19:53 Sunny 59 15 57 13.9 93 93 N N/A 29.96 1015 10 16 N/A
8:53 pm 20:53 Clear 56 13.3 56 13.3 100 100 W 3 6 29.96 1015 10 16 N/A
9:53 pm 21:53 Clear 54 12.2 54 12.2 100 100 WNW 5 7 29.98 1015 10 16 N/A
10:53 pm 22:53 Clear 54 12.2 54 12.2 100 100 N N/A 29.99 1016 10 16 N/A
11:53 pm 23:53 Clear 54 12.2 53 11.7 97 97 W 5 7 29.98 1015 10 16 N/A

Powered by AerisWeather